DW8689 Weather Reports


Display with metric or nautical units.
time (UTC)temp
F
wind
direction
speed
MPH
gust
MPH
rain 1hr
in
rain 24hr
in
rain mn
in
humidity
%
barometer
mb
20180921082007 49 0 0.0 0.0 0.00 0.17 0.11 97 980.5
20180921075006 48 0 0.0 0.0 0.00 0.17 0.11 99 979.9
20180921074007 47 0 0.0 0.0 0.00 0.17 0.11 99 979.6
20180921073006 47 0 0.0 0.0 0.03 0.17 0.11 99 979.3
20180921070007 46 0 0.0 0.0 0.03 0.17 0.11 99 978.4
20180921065007 46 0 0.0 0.0 0.03 0.17 0.11 99 978.2
20180921063007 45 0 0.0 0.0 0.06 0.14 0.08 99 978.1
20180921062008 45 0 0.0 0.0 0.06 0.14 0.08 99 978.0
20180921060007 44 0 0.0 0.0 0.06 0.14 0.08 99 977.9
20180921055007 44 0 0.0 0.0 0.06 0.14 0.08 99 977.7
20180921052007 43 0 0.0 0.0 0.00 0.08 0.03 99 977.4
20180921051006 43 0 0.0 0.0 0.00 0.08 0.03 99 977.2
20180921045007 43 0 0.0 0.0 0.03 0.08 0.03 99 977.1
20180921043007 43 0 0.0 0.0 0.03 0.08 0.03 99 977.2
20180921040008 42 0 0.0 0.0 0.03 0.08 0.03 99 977.5
20180921034006 43 0 0.0 0.0 0.00 0.06 0.00 99 977.5
20180921033007 42 0 0.0 0.0 0.00 0.06 0.00 99 977.8
20180921032007 42 0 0.0 0.0 0.00 0.06 0.00 99 977.8
20180921025006 42 0 0.0 0.0 0.00 0.06 0.00 99 977.7
20180921024007 43 0 0.0 0.0 0.00 0.06 0.00 99 977.6
20180921022007 43 0 0.0 0.0 0.00 0.06 0.00 99 977.7
20180921021006 44 0 0.0 0.0 0.00 0.06 0.00 98 977.9
20180921014006 44 0 0.0 0.0 0.00 0.06 0.00 99 977.9
20180921010006 44 0 0.0 0.0 0.00 0.06 0.00 97 977.6
20180921004006 44 0 0.0 0.0 0.00 0.06 0.00 98 977.3
20180921003008 44 0 0.0 0.0 0.00 0.06 0.00 97 977.3
20180921002006 43 0 0.0 0.0 0.00 0.06 0.00 97 977.3
20180921000007 43 0 0.0 0.0 0.00 0.06 0.00 97 977.2
20180920235007 44 0 0.0 0.0 0.00 0.06 0.00 96 977.2
20180920223006 44 0 0.0 0.0 0.00 0.06 0.06 99 976.5
20180920221007 44 0 0.0 0.0 0.00 0.06 0.06 99 976.3
20180920215007 44 0 0.0 0.0 0.00 0.06 0.06 99 976.2
20180920214007 44 0 0.0 0.0 0.00 0.06 0.06 99 976.2
20180920213007 44 0 0.0 0.0 0.00 0.06 0.06 99 976.1
20180920211007 44 0 0.0 0.0 0.00 0.06 0.06 99 976.1
20180920202007 45 0 0.0 0.0 0.00 0.06 0.06 99 976.1
20180920201014 45 0 0.0 0.0 0.00 0.06 0.06 99 976.0
20180920200007 45 0 0.0 0.0 0.00 0.06 0.06 99 976.2
20180920195006 45 0 0.0 0.0 0.00 0.06 0.06 99 976.1
20180920194009 45 0 0.0 0.0 0.03 0.06 0.06 99 976.3
20180920190007 46 0 0.0 0.0 0.03 0.06 0.06 99 976.3
20180920185006 46 0 0.0 0.0 0.03 0.06 0.06 99 976.4
20180920184007 47 0 0.0 0.0 0.00 0.03 0.03 99 976.2
20180920183007 47 0 0.0 0.0 0.00 0.03 0.03 99 976.4
20180920180007 47 0 0.0 0.0 0.00 0.03 0.03 98 976.8
20180920174007 48 0 0.0 0.0 0.00 0.03 0.03 95 976.3
20180920172010 48 0 0.0 0.0 0.00 0.03 0.03 93 976.3
20180920170006 49 0 0.0 0.0 0.00 0.03 0.03 92 977.0
20180920165007 49 0 0.0 0.0 0.00 0.03 0.03 91 976.9
20180920164007 50 0 0.0 0.0 0.00 0.03 0.03 90 976.8
20180920161006 50 0 0.0 0.0 0.00 0.03 0.03 88 977.3
20180920160006 50 0 0.0 0.0 0.00 0.03 0.03 87 977.7
20180920155007 51 0 0.0 0.0 0.00 0.03 0.03 86 977.7
20180920154007 51 0 0.0 0.0 0.00 0.03 0.03 85 977.6
20180920153006 51 0 0.0 0.0 0.00 0.06 0.03 83 977.5
20180920152007 51 0 0.0 0.0 0.00 0.06 0.03 82 977.5
20180920150006 52 0 0.0 0.0 0.00 0.06 0.03 78 977.9
20180920145007 53 0 0.0 0.0 0.00 0.06 0.03 74 978.1
20180920144007 54 0 0.0 0.0 0.03 0.06 0.03 71 978.3
20180920143007 55 0 0.0 0.0 0.03 0.06 0.03 66 978.2
20180920142007 55 0 0.0 0.0 0.03 0.06 0.03 69 978.0
20180920140006 56 0 0.0 0.0 0.03 0.06 0.03 69 978.9
20180920135007 55 0 0.0 0.0 0.03 0.06 0.03 70 978.8
20180920133007 55 0 0.0 0.0 0.00 0.03 0.00 74 979.3
20180920124007 54 0 0.0 0.0 0.00 0.03 0.00 73 980.5
20180920123006 54 0 0.0 0.0 0.00 0.03 0.00 73 980.4
20180920122008 54 0 0.0 0.0 0.00 0.06 0.00 75 980.6
20180920121006 54 0 0.0 0.0 0.00 0.11 0.00 79 981.0
20180920115115 54 0 0.0 0.0 0.00 0.11 0.00 80 980.9
20180920114006 54 0 0.0 0.0 0.00 0.11 0.00 83 980.9
20180920113009 53 0 0.0 0.0 0.00 0.11 0.00 83 981.1